Back to catalog

CZ-4 DEB

AliveSSO
NORAD 20969·DEBRIS·🇨🇳 China

Launched Sep 3, 1990 from Taiyuan Satellite Launch Center

Loading…

Next Passes (next 24 hours)

TLE

FreshSource: Space-Track

Epoch: Sep 14, 2026, 11:58 UTC

1 20969U 90081CB  26257.49913337  .00001947  00000-0  51593-3 0  9992
2 20969  98.4275 267.5142 0040598  78.3177  75.0936 14.49368514869849

Track CZ-4 DEB in real time with AllMySat

Download on the App Store